This is the latest recevied weather packets stored in our database for station/object AA4XD. If no packets are shown the sender has not sent any weather packets the latest 10 day(s).
| Time | Temp. | Humidity | Pressure | Rain* | Wind** | Luminosity | Snow |
|---|---|---|---|---|---|---|---|
| 1777722908 | 20° C | 85% | 1008.1 hPa | 0 mm | - | 59 W/m² | - |
| 1777722603 | 20° C | 86% | 1008 hPa | 0 mm | - | 45 W/m² | - |
| 1777722300 | 20° C | 86% | 1007.8 hPa | 0 mm | - | 45 W/m² | - |
| 1777721997 | 20° C | 86% | 1008.1 hPa | 0 mm | - | 53 W/m² | - |
| 1777721695 | 19.44° C | 86% | 1007.9 hPa | 0 mm | - | 42 W/m² | - |
| 1777721394 | 19.44° C | 85% | 1007.8 hPa | 0 mm | - | 26 W/m² | - |
| 1777721091 | 19.44° C | 85% | 1007.8 hPa | 0 mm | - | 20 W/m² | - |
| 1777720788 | 19.44° C | 85% | 1007.4 hPa | 0 mm | - | 22 W/m² | - |
| 1777720485 | 19.44° C | 85% | 1007.6 hPa | 0 mm | - | 24 W/m² | - |
| 1777720182 | 19.44° C | 85% | 1007.5 hPa | 0 mm | - | 23 W/m² | - |
| 1777719880 | 19.44° C | 84% | 1007.4 hPa | 0 mm | - | 14 W/m² | - |
| 1777719577 | 19.44° C | 84% | 1007.5 hPa | 0 mm | - | 5 W/m² | - |
| 1777719274 | 19.44° C | 84% | 1007.6 hPa | 0 mm | - | 3 W/m² | - |
| 1777718973 | 19.44° C | 84% | 1007.7 hPa | 0 mm | - | 1 W/m² | - |
| 1777718669 | 19.44° C | 84% | 1007.8 hPa | 0 mm | - | 1 W/m² | - |
| 1777718366 | 19.44° C | 84% | 1007.5 hPa | 0 mm | - | 0 W/m² | - |
| 1777718064 | 19.44° C | 83% | 1007.6 hPa | 0 mm | - | 0 W/m² | - |
| 1777717761 | 19.44° C | 82% | 1007.6 hPa | 0 mm | - | 0 W/m² | - |
| 1777717458 | 19.44° C | 82% | 1007.9 hPa | 0 mm | - | 0 W/m² | - |
| 1777717155 | 19.44° C | 82% | 1007.9 hPa | 0 mm | - | 0 W/m² | - |
| 1777716854 | 19.44° C | 82% | 1007.7 hPa | 0 mm | - | 0 W/m² | - |
| 1777716551 | 19.44° C | 82% | 1007.7 hPa | 0 mm | - | 0 W/m² | - |
| 1777716250 | 19.44° C | 82% | 1007.6 hPa | 0 mm | - | 0 W/m² | - |
| 1777715947 | 19.44° C | 83% | 1007.7 hPa | 0 mm | - | 0 W/m² | - |
| 1777715645 | 19.44° C | 83% | 1007.9 hPa | 0 mm | - | 0 W/m² | - |
* Rain latest hour (hover to see other rain measurements)
** Current wind speed in m/s (hover to see current wind gust speed)